TimeEDT,TemperatureF,Dew PointF,Humidity,Sea Level PressureIn,VisibilityMPH,Wind Direction,Wind SpeedMPH,Gust SpeedMPH,PrecipitationIn,Events,Conditions,WindDirDegrees,DateUTC
12:54 AM,75.9,69.1,79,30.19,10.0,South,4.6,-,N/A,,Partly Cloudy,190,2013-09-11 04:54:00
1:54 AM,75.0,69.1,82,30.18,9.0,South,4.6,-,N/A,,Clear,180,2013-09-11 05:54:00
2:54 AM,73.9,69.1,85,30.17,8.0,South,3.5,-,N/A,,Clear,190,2013-09-11 06:54:00
3:54 AM,73.9,69.1,85,30.16,8.0,South,3.5,-,N/A,,Clear,180,2013-09-11 07:54:00
4:54 AM,72.0,68.0,87,30.15,6.0,South,4.6,-,N/A,,Clear,180,2013-09-11 08:54:00
5:54 AM,72.0,68.0,87,30.16,5.0,South,3.5,-,N/A,,Clear,170,2013-09-11 09:54:00
6:54 AM,71.1,68.0,90,30.17,4.0,South,3.5,-,N/A,,Partly Cloudy,180,2013-09-11 10:54:00
7:54 AM,73.0,69.1,87,30.19,5.0,South,4.6,-,N/A,,Partly Cloudy,190,2013-09-11 11:54:00
8:54 AM,77.0,69.1,76,30.19,7.0,SSW,6.9,-,N/A,,Partly Cloudy,210,2013-09-11 12:54:00
9:54 AM,81.0,69.1,67,30.19,9.0,SW,4.6,-,N/A,,Partly Cloudy,220,2013-09-11 13:54:00
10:54 AM,84.9,70.0,61,30.18,10.0,Calm,Calm,-,N/A,,Partly Cloudy,0,2013-09-11 14:54:00
11:54 AM,89.1,70.0,53,30.17,10.0,SW,6.9,-,N/A,,Scattered Clouds,230,2013-09-11 15:54:00
12:54 PM,88.0,72.0,59,30.15,10.0,SSE,8.1,-,N/A,,Mostly Cloudy,150,2013-09-11 16:54:00
1:54 PM,91.0,71.1,52,30.14,10.0,South,9.2,-,N/A,,Mostly Cloudy,190,2013-09-11 17:54:00
2:54 PM,91.0,70.0,50,30.11,10.0,South,10.4,-,N/A,,Scattered Clouds,180,2013-09-11 18:54:00
3:54 PM,91.9,69.1,47,30.09,10.0,South,11.5,-,N/A,,Scattered Clouds,180,2013-09-11 19:54:00
4:54 PM,91.0,69.1,48,30.07,8.0,South,11.5,-,N/A,,Mostly Cloudy,180,2013-09-11 20:54:00
5:54 PM,89.1,69.1,52,30.07,8.0,South,6.9,-,N/A,,Scattered Clouds,170,2013-09-11 21:54:00
6:54 PM,84.0,70.0,63,30.07,9.0,South,4.6,-,N/A,,Scattered Clouds,180,2013-09-11 22:54:00
7:54 PM,80.1,69.1,69,30.08,9.0,South,6.9,-,N/A,,Scattered Clouds,180,2013-09-11 23:54:00
8:54 PM,78.1,68.0,71,30.09,10.0,South,5.8,-,N/A,,Scattered Clouds,180,2013-09-12 00:54:00
9:54 PM,75.9,68.0,76,30.08,10.0,South,6.9,-,N/A,,Scattered Clouds,190,2013-09-12 01:54:00
10:54 PM,75.0,66.0,73,30.07,10.0,South,4.6,-,N/A,,Partly Cloudy,180,2013-09-12 02:54:00
11:54 PM,75.0,64.9,71,30.06,10.0,South,4.6,-,N/A,,Partly Cloudy,190,2013-09-12 03:54:00